Regional Weather Roundup
Issued by NWS

Home | Current Version | Previous Version | Graphics & Text | Print | Product List | Glossary On
Versions: 1 2 3 4 5 6 7 8 9 10 11 12 13 14 15 16 17 18 19 20 21 22 23 24 25 26 27 28 29 30 31 32 33 34 35 36 37 38 39 40 41 42 43 44 45 46 47 48 49 50
000
ASUS43 KOAX 291710
RWRNE

WEATHER ROUNDUP FOR NEBRASKA
NATIONAL WEATHER SERVICE OMAHA NE
1200 PM CDT FRI AUG 29 2014

NOTES: SATELLITE DATA IS BEING USED TO AUGMENT CLOUD COVER ABOVE
       12000 FEET.
       "FAIR" INDICATES FEW OR NO CLOUDS BELOW 12,000 FEET WITH NO
       SIGNIFICANT WEATHER AND/OR OBSTRUCTIONS TO VISIBILITY.

  * THESE STATIONS DO NOT REPORT WEATHER SUCH AS RAIN...SNOW OR FOG.

NEZ001>004-019>022-054>056-291800-
NEBRASKA PANHANDLE

CITY           SKY/WX    TMP DP  RH WIND       PRES   REMARKS
SCOTTSBLUFF    MOSUNNY   74  58  57 NW21      30.03R
ALLIANCE       SUNNY     76  53  44 N15       30.00S
CHADRON        MOSUNNY   74  55  51 N9        30.01R
KIMBALL        PTSUNNY   74  48  39 N13       30.06F
SIDNEY         SUNNY     80  48  32 NW14      30.04S
$$

NEZ057>060-069>072-079>082-291800-
SOUTHWEST NEBRASKA

CITY           SKY/WX    TMP DP  RH WIND       PRES   REMARKS
NORTH PLATTE   SUNNY     77  59  53 NW6       29.90F
IMPERIAL       SUNNY     77  56  48 NW9       29.96S
LEXINGTON      SUNNY     75  62  64 W8        29.89S
MCCOOK         SUNNY     78  56  46 W7        29.92S
OGALLALA       SUNNY     78  55  44 N10       29.95S
$$

NEZ005>010-023>029-035>040-094-291800-
NORTH CENTRAL NEBRASKA

CITY           SKY/WX    TMP DP  RH WIND       PRES   REMARKS
VALENTINE      SUNNY     80  59  48 NW16G23   29.88F
AINSWORTH      SUNNY     75  61  61 N8        29.89S
BROKEN BOW     SUNNY     78  60  53 N10       29.87F
O`NEILL        CLOUDY    72  68  88 N6        29.86S
ORD            PTSUNNY   75  65  70 N7        29.85S
THEDFORD       SUNNY     81  56  43 N16       29.92R
$$

NEZ041-046>049-061>064-073>077-083>087-291800-
SOUTH CENTRAL NEBRASKA

CITY           SKY/WX    TMP DP  RH WIND       PRES   REMARKS
GRAND ISLAND   PTSUNNY   70  65  84 NE5       29.87S
AURORA         CLOUDY    67  67 100 CALM      29.86S
HASTINGS       PTSUNNY   74  63  68 NE7       29.87S
HEBRON         LGT RAIN  69  65  85 SW6       29.85F
HOLDREGE       MOSUNNY   74  64  70 NW6       29.89F
KEARNEY *      PTSUNNY   75  64  69 CALM      29.88S
YORK           LGT RAIN  66 N/A N/A CALM      29.87S
$$

NEZ011>018-030>034-042>045-291800-
NORTHEAST NEBRASKA

CITY           SKY/WX    TMP DP  RH WIND       PRES   REMARKS
NORFOLK        CLOUDY    70  66  87 S5        29.84F
ALBION         CLOUDY    69  64  85 CALM      29.86F
BLAIR          LGT RAIN  72  69  89 S8        29.85S
FREMONT        CLOUDY    74  69  83 SW3       29.84F
TEKAMAH        LGT RAIN  73  70  90 S8        29.83S
WAYNE          HVY RAIN  69  68  97 CALM      29.84S
$$

NEZ050>053-065>068-078-088>093-291800-
SOUTHEAST NEBRASKA

CITY           SKY/WX    TMP DP  RH WIND       PRES   REMARKS
LINCOLN        CLOUDY    73  67  81 SW7       29.85S
OMAHA EPPLEY   LGT RAIN  73  68  84 SW6       29.85S
BEATRICE       CLOUDY    73  67  83 SW9       29.85S
FALLS CITY     CLOUDY    74  67  78 S9        29.85S
NEBRASKA CITY  LGT RAIN  68  68 100 SW8       29.85S
PLATTSMOUTH    LGT RAIN  70  67  89 S5        29.85F
$$

NEZ044-045-051>053-067-291800-
OMAHA AREA

CITY           SKY/WX    TMP DP  RH WIND       PRES   REMARKS
OMAHA EPPLEY   LGT RAIN  73  68  84 SW6       29.85S
BLAIR          LGT RAIN  72  69  89 S8        29.85S
FREMONT        CLOUDY    74  69  83 SW3       29.84F
MILLARD        RAIN      73  69  88 CALM      29.85S
OFFUTT AFB     LGT RAIN  72  72 100 SW7       29.85S
PLATTSMOUTH    LGT RAIN  70  67  89 S5        29.85F
WAHOO          PTSUNNY   73  67  81 S3        29.84F
$$


USA.gov is the U.S. government's official web portal to all federal, state and local government web resources and services.